Location: Hamilton
(37.7830°S, 175.2830°E)
Time: 13:34:53
(UTC+12:00)

ISS - Visible Passes

Search period start: 01 July 2022 00:00
Search period end: 11 July 2022 00:00
Orbit: 414 x 420 km, 51.6° (Epoch: 30 June)

Date Brightness Start Highest point End Pass type
(mag) Time Alt. Az. Time Alt. Az. Time Alt. Az.
02 Jul -1.3 18:11:28 10° S 18:12:09 10° SSE 18:12:40 10° SSE visible
03 Jul -1.4 18:58:36 10° SSW 18:59:35 15° SSW 18:59:35 15° SSW visible
04 Jul -1.9 18:10:42 10° SSW 18:13:00 17° SSE 18:13:41 16° SE visible
05 Jul -2.7 18:58:32 10° SW 19:00:53 37° SSW 19:00:53 37° SSW visible
06 Jul -2.9 18:10:26 10° SW 18:13:34 33° SSE 18:15:21 20° E visible
06 Jul -0.7 19:47:23 10° WSW 19:48:20 16° W 19:48:20 16° W visible
07 Jul -2.8 18:58:48 10° WSW 19:02:05 46° NW 19:03:08 33° N visible
08 Jul -3.8 18:10:26 10° SW 18:13:51 87° NW 18:17:14 10° NE visible
09 Jul -0.6 18:59:58 10° W 19:01:59 15° NW 19:03:58 10° NNW visible
10 Jul -1.4 18:10:56 10° WSW 18:13:51 27° NW 18:16:43 10° NNE visible
